Flag for United Kingdom Weather past 2 weeks in Middlesbrough, England, United Kingdom

Now
55 °F

Passing clouds.


Feels Like: 52 °F
Forecast: 53 / 66 °F
Wind: 14 mph from Northwest

Location: Leeming

Current Time: Aug 31, 2014 at 5:34:54 AM

Latest Report: Aug 31, 2014 at 4:50 AM


Visibility: N/A

Pressure: 29.95 "Hg

Humidity: 72%

Dew point: 46 °F

Location of MiddlesbroughLocation

Historic Weather in Middlesbrough — Graph

°F

Middlesbrough temperature yesterday

Maximum temperature yesterday: 68 °F (at 12:50 PM)
Minimum temperature yesterday: 52 °F (at 10:50 PM)
Average temperature yesterday: 60 °F

Past Weeks' High & Low Weather Summary

 TemperatureHumidityPressure
High72 °F (Aug 28, 12:50 PM)100% (Aug 17, 2:50 AM)30.07 "Hg (Aug 17, 2:50 AM)
Low39 °F (Aug 20, 4:50 AM)40% (Aug 24, 2:50 PM)29.53 "Hg (Aug 17, 6:50 PM)
Average56 °F75%29.84 "Hg
* Reported Aug 16 3:50 AM — Aug 31 3:50 AM, Middlesbrough, Weather by CustomWeather, © 2014

Note: Actual official high and low records may vary slightly from our data, if they occured in-between our weather recording intervals... More about our weather records

Advertising

Middlesbrough weather history for previous 24 hours

 ConditionsComfort  
Time TempWeatherWind HumidityBarometerVisibility
3:50 AM
Aug 31
55 °FPassing clouds.15 mph77%29.92 "HgN/A
2:50 AM54 °FPassing clouds.10 mph77%29.95 "HgN/A
1:50 AM54 °FCool.10 mph77%29.95 "HgN/A
12:50 AM54 °FCool.12 mph77%29.95 "HgN/A
11:50 PM
Aug 30
55 °FCool.15 mph77%29.92 "HgN/A
10:50 PM52 °FCool.8 mph94%29.92 "HgN/A
9:50 PM54 °FCool.8 mph88%29.92 "HgN/A
8:50 PM57 °FCool.9 mph77%29.92 "HgN/A
7:50 PM59 °FCool.8 mph72%29.89 "HgN/A
6:50 PM63 °FMild.16 mph64%29.89 "HgN/A
5:50 PM63 °FMild.17 mph64%29.89 "HgN/A
4:50 PM64 °FMild.20 mph52%29.89 "HgN/A
3:50 PM66 °FScattered clouds.20 mph49%29.89 "HgN/A
2:50 PM66 °FMild.21 mph49%29.86 "HgN/A
1:50 PM66 °FPassing clouds.20 mph49%29.86 "HgN/A
12:50 PM68 °FPassing clouds.17 mph53%29.86 "HgN/A
11:50 AM66 °FPassing clouds.21 mph60%29.83 "HgN/A
10:50 AM64 °FPassing clouds.18 mph64%29.83 "HgN/A
9:50 AM63 °FScattered clouds.16 mph68%29.83 "HgN/A
8:50 AM61 °FScattered clouds.14 mph77%29.80 "HgN/A
7:50 AM59 °FPartly sunny.12 mph82%29.80 "HgN/A
6:50 AM57 °FPassing clouds.9 mph82%29.77 "HgN/A
5:50 AM55 °FPassing clouds.10 mph88%29.77 "HgN/A
Weather by CustomWeather, © 2014

See weather overviewHow to use our weather pages